RH
26 29 32 33 32 26 25 31 41 45 44 53 71 76 80 76 73 74 79 83 88 84 92 87 86 93 84 91 100 88 76 82 77 93 72 64 46 52 50 34 32 36 32 29 25 23 24
23 24 28 34 35 30 24 28 42 43 41 57 62 75 78 78 66 74 78 84 89 89 81 80 81 77 72 94 98 88 79 77 85 72 54 56 50 47 30 30 34 32 31 30 25 24 25
26 22 22 27 36 35 28 25 40 40 38 45 56 59 65 77 68 64 69 72 63 66 71 65 63 52 58 72 73 82 69 62 55 50 48 45 45 44 28 37 30 30 40 38 33 27 26
32 26 24 23 25 36 36 26 34 38 37 33 38 54 58 63 69 62 62 57 55 59 67 52 49 44 59 55 57 71 63 54 47 41 40 41 38 27 26 29 30 33 40 49 34 34 21
47 45 37 28 23 23 33 37 25 35 36 32 31 39 54 54 51 54 52 48 46 47 52 47 43 45 52 48 47 47 47 45 38 36 44 30 27 29 30 47 46 36 54 45 38 30 28
43 47 47 46 40 28 22 28 39 30 28 30 29 29 40 54 51 52 56 48 45 39 42 42 43 44 53 49 43 43 40 37 32 28 26 26 28 45 45 54 52 39 46 38 43 36 30
32 38 42 43 44 43 37 22 24 36 39 36 36 28 41 45 48 50 55 46 45 46 42 52 51 51 46 43 39 35 32 31 29 26 35 32 56 63 40 32 26 31 35 48 43 36 33
28 29 32 35 37 39 40 38 26 22 32 38 41 39 39 42 42 44 44 49 56 55 51 40 38 40 37 37 36 34 30 30 30 38 37 48 49 40 45 35 34 28 44 43 37 34 28
21 24 25 27 30 33 38 39 35 28 23 28 38 43 32 44 43 43 42 42 40 47 50 42 41 41 44 33 45 38 37 32 39 46 48 52 37 37 38 52 40 50 41 39 39 37 34
18 20 21 22 23 26 30 34 35 27 21 25 38 38 40 30 38 40 38 37 35 37 79 59 50 42 41 40 41 39 37 37 40 48 45 51 50 43 52 52 48 44 44 37 48 47 59
16 17 18 19 19 20 22 28 32 24 18 22 28 36 41 32 49 34 39 34 33 38 80 49 47 39 39 41 40 34 38 36 49 45 45 62 62 61 62 57 49 48 42 41 39 56 50
13 14 15 15 15 15 17 21 28 27 18 22 30 35 40 42 40 38 35 32 44 74 70 56 43 41 42 37 38 35 35 36 41 53 51 56 47 55 51 46 47 44 42 43 51 67 65
13 12 12 12 12 12 16 19 24 28 20 23 28 32 37 40 44 39 34 39 78 81 47 54 57 43 45 43 41 42 48 51 60 57 82 65 58 49 47 52 45 45 72 90 77 77 59
14 12 11 10 10 13 16 20 24 26 20 22 24 28 36 36 34 33 42 68 74 64 55 47 49 43 50 46 40 39 48 65 51 58 92 74 54 63 57 57 59 50 71 87 62 81 77
14 13 12 10 10 14 19 22 24 26 23 20 23 30 32 40 35 48 54 92 77 71 46 51 46 50 47 42 41 44 52 56 57 57 57 76 79 55 59 59 57 58 78 52 72 78 84
15 14 13 13 11 15 22 25 26 25 24 20 23 38 34 48 55 62 76 78 64 55 57 48 51 42 47 43 45 46 52 50 56 50 49 48 78 56 60 58 56 62 52 60 87 63 83
16 15 14 14 16 19 25 28 27 26 24 21 32 36 30 45 53 43 87 68 60 56 57 58 63 47 46 45 42 42 57 52 48 49 48 48 64 70 57 70 72 62 69 66 72 83 90
17 16 16 16 20 25 31 31 29 25 23 24 27 50 32 42 50 69 79 58 53 55 53 53 52 52 51 46 47 48 62 61 49 48 54 53 66 87 57 56 53 58 60 64 83 75 81
20 19 18 18 20 27 33 35 33 28 25 25 34 40 34 34 79 81 59 57 59 54 53 54 51 49 43 45 48 45 69 58 53 62 65 61 61 80 66 60 57 63 60 59 62 72 77
21 22 19 20 21 23 30 35 35 33 28 30 43 69 39 35 44 55 54 53 64 55 55 50 48 46 43 43 42 45 64 61 56 61 56 58 60 60 67 50 57 66 59 64 66 90 76
25 27 24 22 20 22 28 34 34 34 30 33 36 54 51 73 52 50 51 47 48 55 52 50 49 48 46 42 40 40 56 69 65 63 59 65 70 62 54 55 52 49 49 60 79 68 70
40 41 32 27 24 20 25 40 40 35 31 32 40 46 51 50 47 48 49 46 47 47 47 53 51 43 42 44 39 38 40 43 52 72 64 62 60 62 64 51 56 63 57 52 48 62 67
58 64 60 49 45 36 26 34 43 42 38 42 51 51 49 64 54 60 51 45 50 50 50 50 51 52 49 52 52 50 50 50 48 67 74 73 72 76 74 66 60 44 48 46 47 46 44
82 64 69 76 85 90 74 56 48 51 52 54 56 55 60 70 59 55 46 50 51 51 57 52 49 53 58 52 48 50 53 51 51 51 53 63 67 77 88 70 57 36 34 33 44 41 41
98 81 67 63 80 86 94 98 87 74 65 62 58 58 64 78 58 54 48 51 49 48 49 49 54 56 59 51 59 55 59 49 62 71 70 66 69 78 85 90 60 34 35 38 35 36 36
96 90 90 92 89 92 94 94 86 81 87 77 73 72 66 71 70 42 48 49 60 58 58 51 51 48 50 65 62 54 57 47 64 79 68 68 71 75 82 83 70 36 35 33 32 46 42
84 88 88 89 91 90 91 87 83 93 99 96 84 76 76 77 70 65 61 62 54 61 73 53 57 64 63 74 71 71 70 38 53 68 88 86 83 91 91 89 74 47 36 36 42 48 42
90 83 86 88 90 90 87 83 83 97 99 100 99 96 88 84 77 79 71 62 62 61 77 57 69 72 77 79 80 75 67 54 48 57 82 84 93 94 87 88 89 40 40 40 46 45 42
96 88 84 85 87 87 86 82 79 82 92 97 97 99 99 99 86 87 81 75 68 63 64 63 64 61 63 84 83 74 66 65 59 57 59 66 63 76 69 66 43 40 40 45 48 46 53
Wind_Speed
17 18 19 19 17 14 12 13 16 18 24 22 21 21 20 24 28 29 17 15 20 25 24 28 25 20 11 14 7 11 10 14 31 6 12 14 17 9 8 7 7 4 2 10 13 19 15
18 18 18 19 19 16 14 13 13 16 20 21 20 20 20 19 28 25 28 20 22 17 23 19 19 18 21 17 11 11 14 23 15 12 5 10 15 17 9 6 6 8 12 7 12 14 11
21 19 19 18 18 18 15 13 13 14 16 19 18 20 22 15 20 20 24 25 23 23 14 18 20 26 39 17 16 15 27 18 16 5 6 10 15 12 7 9 17 20 7 7 10 5 3
23 23 22 19 17 17 16 13 11 12 13 16 19 15 17 16 14 15 17 19 17 17 19 20 29 33 20 18 17 22 22 11 7 6 5 8 11 16 10 23 8 4 4 5 4 5 1
22 23 24 23 20 17 15 14 10 8 12 14 15 17 11 15 21 16 22 25 20 22 20 16 15 19 9 17 16 8 7 6 7 9 15 7 16 11 13 6 5 1 2 4 1 1 1
20 21 23 24 24 22 18 14 12 10 10 11 12 14 13 5 10 11 13 16 25 11 10 14 8 9 10 12 16 9 3 6 8 10 9 11 7 4 4 5 5 6 5 3 4 2 0
19 20 21 23 24 25 23 18 13 11 11 10 11 10 12 11 4 6 7 7 10 23 31 22 17 13 15 12 12 11 8 6 5 5 4 7 8 2 2 2 4 5 6 7 2 2 1
17 19 20 22 23 24 26 24 17 12 9 10 10 7 6 14 16 16 18 18 17 9 10 22 23 21 22 9 13 10 7 1 4 4 4 7 4 3 8 4 7 5 10 3 1 1 2
16 17 19 21 23 24 26 27 24 15 9 8 10 9 3 10 12 13 11 10 9 8 5 14 14 19 14 18 10 14 12 15 10 10 8 7 3 7 0 10 13 7 7 3 3 1 2
17 17 18 19 21 23 26 28 28 20 9 7 9 14 4 11 8 5 2 6 6 5 5 11 10 8 10 4 10 16 13 4 6 7 5 7 10 7 8 8 5 6 4 4 4 3 2
17 17 17 20 21 22 25 28 30 23 12 9 10 14 7 6 4 5 4 3 2 1 5 10 8 6 10 7 4 10 10 21 6 4 5 1 6 8 9 4 4 3 2 4 2 4 5
16 17 18 18 21 23 24 27 30 24 13 9 14 16 8 1 3 3 3 1 1 6 2 6 6 3 5 13 4 4 7 9 8 11 10 5 6 5 3 3 5 3 3 5 5 4 3
16 16 18 19 19 22 24 27 30 28 14 9 9 21 11 3 1 4 3 1 5 6 3 3 2 4 5 4 6 5 4 6 4 5 5 6 4 3 2 2 3 2 5 3 4 3 5
14 16 17 19 19 20 23 26 29 30 16 10 7 20 15 8 4 4 5 5 9 5 1 2 2 1 3 3 2 3 3 5 7 5 3 4 5 5 8 3 2 3 5 4 5 3 4
12 14 15 17 18 19 21 24 27 30 20 12 6 16 19 10 5 2 2 6 6 4 3 4 3 2 1 0 2 3 3 3 2 5 4 4 2 1 3 3 3 3 1 3 5 2 3
10 12 14 15 16 18 20 22 24 27 24 12 6 6 23 8 6 3 6 5 3 3 5 3 2 0 2 1 1 2 2 3 3 1 0 2 4 1 1 3 1 1 1 3 3 2 3
9 10 11 13 15 16 18 21 23 24 24 13 7 3 22 8 6 8 4 3 3 2 4 2 4 4 4 2 3 2 1 2 3 3 4 2 4 3 3 5 5 1 1 2 3 4 3
8 9 10 11 13 15 17 19 21 22 23 15 5 4 19 7 6 5 2 2 3 2 1 1 2 4 3 5 5 4 3 3 4 3 2 1 3 3 3 2 2 4 5 6 4 4 3
8 8 8 9 11 12 14 16 18 20 21 15 3 4 12 10 4 2 1 3 3 0 2 2 2 3 1 2 3 3 4 5 6 4 2 4 1 2 7 5 3 3 4 3 3 3 5
9 9 9 8 9 11 13 15 16 18 17 11 4 3 6 9 6 4 2 1 1 1 2 2 2 1 1 2 2 3 2 1 1 3 3 4 1 5 6 3 3 3 4 5 5 3 3
10 9 9 10 10 11 12 12 14 14 14 8 5 2 3 2 5 4 3 2 1 1 0 1 2 1 1 1 2 3 4 3 3 4 2 4 2 2 4 6 4 6 7 9 11 10 8
11 10 9 9 10 10 11 12 12 12 12 8 3 3 2 1 1 2 2 0 2 1 1 2 1 3 1 0 1 1 2 3 4 3 4 1 2 1 4 4 4 6 10 12 13 12 15
12 11 10 9 9 11 10 10 10 11 10 6 5 4 1 1 3 3 2 1 1 2 1 2 2 3 3 0 2 3 3 4 2 6 5 4 2 2 4 4 7 8 8 13 5 6 13
15 15 11 9 9 11 12 10 8 8 10 8 6 3 1 2 2 1 0 1 1 0 1 1 0 1 1 4 8 8 7 7 3 2 3 3 4 3 3 4 2 5 1 3 9 8 10
18 14 14 13 9 12 14 15 12 6 5 4 3 2 1 1 1 3 3 1 3 3 2 2 1 2 4 4 3 3 3 2 2 4 4 3 3 1 2 2 8 3 1 1 2 4 3
19 16 15 13 11 11 13 14 13 14 6 4 2 3 1 3 3 3 3 4 2 1 4 2 3 4 2 2 2 1 3 4 2 2 5 2 4 3 1 2 5 2 1 1 1 2 8
20 20 18 15 14 12 13 14 15 16 11 9 5 3 1 4 3 4 4 4 3 3 2 1 2 1 2 1 1 3 3 2 2 4 3 3 1 5 3 3 7 5 2 2 2 2 4
25 22 20 19 17 17 15 14 15 15 13 11 11 7 4 4 6 6 5 6 5 5 3 5 1 1 2 0 1 3 2 3 1 4 6 6 6 4 4 4 9 4 1 1 3 1 2
31 28 24 21 21 19 18 18 16 15 17 16 12 8 8 8 4 5 8 6 9 7 5 7 3 5 8 2 2 0 2 2 2 3 2 2 6 5 9 6 5 8 5 2 5 10 12
Wind_Direction
33 35 33 32 25 19 16 23 34 28 19 21 20 24 29 46 45 31 30 39 60 75 90 97 103 114 116 81 79 131 133 147 166 169 134 162 195 182 142 147 87 84 23 54 64 95 86
32 30 30 31 29 25 22 27 39 29 19 21 26 28 35 39 43 50 51 66 64 66 89 70 96 108 99 62 109 104 142 148 153 134 113 184 188 182 115 122 89 118 97 60 59 66 55
34 31 31 28 29 27 28 20 31 33 28 26 24 34 33 36 58 59 60 67 69 56 74 83 92 90 69 91 83 108 112 125 126 129 294 245 242 224 108 86 119 120 79 44 26 37 64
35 34 33 30 25 25 26 23 24 29 19 21 21 16 35 42 50 61 47 49 51 67 88 91 88 83 77 68 84 122 111 81 95 109 133 176 213 138 118 123 111 68 59 87 315 2 215
35 34 34 32 26 20 18 23 13 8 8 16 19 24 47 48 69 62 53 60 70 86 113 98 61 65 48 72 77 134 157 96 100 127 150 106 121 90 117 94 65 77 140 102 146 339 195
34 31 32 33 30 23 14 9 12 359 351 357 8 15 22 32 53 24 13 47 61 86 86 78 72 76 49 62 97 104 102 140 100 107 102 81 66 77 41 74 159 175 131 107 142 249 185
30 29 28 28 29 27 22 11 359 2 359 349 350 11 20 21 310 357 17 54 74 55 61 77 64 72 56 87 81 100 112 107 92 66 90 45 69 60 338 267 130 151 101 113 131 295 122
29 26 25 25 24 24 21 17 7 354 351 357 353 343 74 89 92 92 86 72 65 87 55 54 67 59 61 72 72 63 109 84 58 71 81 43 63 293 302 351 92 108 110 78 76 340 71
26 27 24 22 21 20 18 15 10 1 351 350 1 354 208 135 117 110 83 63 30 23 59 28 28 40 18 55 38 27 48 90 89 70 66 95 267 321 107 42 76 47 97 126 144 88 12
16 19 20 21 20 18 16 14 11 6 358 2 17 9 345 204 197 209 273 323 320 357 70 333 1 22 10 45 21 29 38 37 56 105 77 59 349 57 43 65 34 73 345 70 69 91 174
13 13 15 14 15 18 18 14 13 11 18 11 2 1 4 193 204 208 244 271 272 215 63 300 328 350 43 99 154 13 38 61 64 70 99 147 12 25 39 351 10 150 52 79 69 95 72
13 11 12 14 12 14 17 17 14 15 22 32 31 13 17 180 191 208 237 237 120 45 12 337 326 337 32 35 49 69 52 67 64 60 61 85 58 56 1 347 52 132 74 35 44 71 34
5 10 10 12 15 14 14 17 17 16 22 22 26 23 34 54 105 141 142 148 37 79 274 346 305 7 57 46 12 32 34 39 71 79 14 2 28 354 9 343 14 49 55 17 9 5 216
1 7 9 8 13 14 15 13 18 17 18 26 37 26 38 55 90 112 129 53 67 251 240 285 303 50 69 21 16 38 53 22 14 63 106 111 348 2 334 54 356 37 132 151 182 188 247
356 360 5 9 5 13 14 14 14 14 15 21 34 30 30 46 76 91 102 53 176 245 335 330 331 315 37 89 128 84 75 123 43 23 120 123 5 274 42 357 52 336 31 165 103 53 46
347 355 357 4 8 6 9 12 14 11 11 14 20 28 17 31 36 61 73 117 107 2 349 350 312 1 100 8 83 90 137 325 138 98 61 156 85 326 308 6 302 159 202 55 4 107 289
332 345 352 358 3 5 8 6 8 10 10 8 20 44 9 17 37 60 96 110 120 39 25 34 10 14 36 14 30 77 73 346 20 332 339 102 113 241 119 202 191 113 115 64 120 130 156
315 331 345 352 1 3 4 7 6 7 9 11 17 41 6 10 49 46 65 67 140 159 353 316 1 44 34 23 22 49 102 42 16 21 53 38 116 169 201 201 174 181 182 149 125 223 199
299 313 328 342 350 357 1 2 6 6 7 12 44 12 15 25 76 25 168 53 45 287 83 40 84 28 7 57 93 54 57 344 13 45 62 339 340 49 345 348 349 243 221 192 110 84 210
289 302 309 324 336 345 353 358 3 4 6 8 7 28 33 55 66 112 95 49 94 7 340 341 168 226 276 162 135 150 126 194 79 63 17 27 260 175 191 209 132 220 224 199 157 140 211
266 280 297 312 324 333 342 352 356 5 4 11 32 56 21 340 8 68 97 350 89 96 221 319 305 266 97 138 156 154 142 172 205 191 157 122 218 4 278 263 247 225 215 207 206 204 193
266 273 283 296 307 315 330 345 356 2 14 35 48 32 32 72 300 17 50 97 47 20 163 178 154 345 246 74 29 174 20 190 200 201 193 178 251 105 283 308 237 251 243 231 234 228 243
261 264 280 296 308 313 314 327 346 3 19 64 52 39 62 22 331 62 267 201 99 78 7 54 22 4 294 85 321 276 252 269 175 162 195 157 139 66 267 341 323 290 240 221 207 206 216
261 254 265 284 307 322 325 322 328 354 18 35 34 40 26 264 119 171 232 354 317 72 217 184 303 163 253 304 301 273 270 271 265 272 189 167 150 151 261 351 320 243 231 234 207 238 215
267 273 260 265 281 301 315 326 329 340 5 7 21 67 101 255 201 148 145 193 293 271 277 258 248 243 292 323 13 348 354 4 33 39 20 17 129 275 195 222 293 339 29 337 217 3 262
264 273 260 262 278 286 293 301 317 317 318 335 328 6 254 150 231 148 163 181 184 229 337 261 287 280 236 118 100 220 245 229 241 350 10 62 74 139 158 207 255 283 264 326 282 291 359
263 261 263 251 260 274 284 296 305 302 303 302 284 245 224 284 219 214 179 177 172 163 175 241 293 320 233 64 171 200 241 171 222 195 157 122 156 211 236 270 283 265 223 331 153 218 11
258 258 254 250 250 263 272 281 299 294 290 295 279 267 245 209 254 243 232 212 182 189 162 166 77 208 63 332 224 268 212 237 193 175 180 170 156 194 174 225 263 194 84 220 192 270 330
251 253 248 242 243 253 263 278 287 280 265 272 264 268 268 268 259 243 242 226 228 218 210 197 196 165 199 142 220 322 292 319 207 258 130 235 193 181 191 216 207 191 188 185 296 272 274